Location: Brunsbüttel
(52.3892°N, 10.6138°E)
Time: 22:07:04
(UTC+00:00)

Lacrosse 5 rocket - Pass Details

Date: 19 May 2025
Orbit: 419 x 516 km, 57.0° (Epoch: 15 June)

Event Time Altitude Azimuth Distance (km) Brightness Sun altitude
Rises 21:21:57 0° 290° (WNW) 2,475 5.4 -13.6°
Reaches altitude 10° 21:24:50 10° 266° (W) 1,573 3.9 -13.8°
Maximum altitude 21:26:48 14° 231° (SW) 1,308 3.1 -14.0°
Enters shadow 21:27:57 13° 209° (SSW) 1,387 3.0 -14.0°
